www.pogodaiklimat.ru

Погода и климат >> Архив погоды >> Иран >> Бушир аэропорт


ПОГОДА в Бушир аэропорту

  • Прогноз погоды в Бушир аэропорту
  • Монитор погоды в Бушир аэропорту

АРХИВ ПОГОДЫ в Бушир аэропорту

Время (UTC), дата Ветер
(напр.,м/с)
 
Видим.   Явления Облачность Т
(С)
Тd
(С)
f
(%)
Тe
(С)
Тes
(С)
Комфортность P
(гПа)
Po
(гПа)
Тmin
(С)
Tmax
(С)
R
(мм)
R24
(мм)
S
(см)
06 15.09 штиль 0 10 км ясно +33.5 +22.2 52 +43 +57 опасность
перегрева
1006.2 1005.4
09 15.09 З 3 10 км ясно +35.2 +25.3 57 +50 +64 опасность
перегрева
1005.8 1005.0
12 15.09 З 4 10 км ясно +35.3 +23.9 52 +47 +52 опасность
перегрева
1004.9 1004.1
15 15.09 штиль 0 10 км ясно +31.9 +24.5 65 +45 +45 опасность
перегрева
1005.8 1005.0 +36.0
18 15.09 штиль 0 10 км ясно +29.0 +24.6 77 +41 +41 опасность
перегрева
1006.8 1006.0
21 15.09 штиль 0 6000 м мгла ясно +26.9 +22.9 79 +36 +36 очень
душно
1006.2 1005.4
00 16.09 штиль 0 6000 м мгла ясно +25.6 +21.3 77 +32 +32 очень
душно
1005.3 1004.5
03 16.09 штиль 0 10 км 3/0
[Ci sp]
+23.6 +15.9 62 +27 +27 жарко 1006.5 1005.7 +23.6
06 16.09 штиль 0 8000 м мгла 3/0
[Ci sp]
+33.8 +13.8 30 +35 +48 очень
жарко
1007.8 1007.0
09 16.09 СЗ 6 10 км 3/0
[Ci sp]
+34.8 +21.8 47 +43 +49 опасность
перегрева
1006.7 1005.9
12 16.09 З 4 10 км ясно +35.0 +24.0 53 +47 +51 опасность
перегрева
1004.8 1004.0
15 16.09 штиль 0 10 км 3/0
[Ci fib]
+32.4 +23.2 58 +43 +43 опасность
перегрева
1004.5 1003.7 +36.0
18 16.09 штиль 0 10 км ясно +28.6 +23.2 73 +39 +39 очень
душно
1005.7 1004.9
21 16.09 штиль 0 10 км ясно +28.0 +22.1 70 +36 +36 очень
душно
1005.1 1004.3
00 17.09 штиль 0 5000 м дымка ясно +29.7 +27.9 90 +49 +49 опасность
перегрева
1004.2 1003.4
03 17.09 штиль 0 5000 м дымка 5/0
[Ci sp]
+25.5 +22.8 85 +34 +34 очень
душно
1005.2 1004.4 +25.0
06 17.09 штиль 0 2500 м дымка 5/0
[Ci sp]
+30.7 +28.1 86 +51 +63 опасность
перегрева
1006.6 1005.8
09 17.09 З 4 8000 м мгла ясно +36.1 +24.7 52 +49 +60 опасность
перегрева
1005.2 1004.4
12 17.09 З 6 10 км 4/0
[Ci sp]
+35.4 +26.4 60 +52 +55 опасность
перегрева
1003.3 1002.5
15 17.09 штиль 0 10 км 5/0
[Ci sp]
+33.4 +25.9 65 +49 +49 опасность
перегрева
1003.7 1002.9 +36.4
18 17.09 штиль 0 10 км ясно +31.8 +20.4 51 +39 +39 очень
душно
1004.5 1003.7
21 17.09 штиль 0 10 км 3/0
[Ci sp]
+28.2 +19.4 59 +34 +34 очень
душно
1003.9 1003.1
00 18.09 штиль 0 10 км 3/0
[Ci sp]
+28.4 +19.6 59 +34 +34 очень
душно
1003.2 1002.4
03 18.09 штиль 0 8000 м мгла 5/0
[Ci sp]
+26.6 +18.2 60 +31 +31 душно 1004.8 1004.0 +25.4
06 18.09 ЮЗ 2 10 км ясно +34.1 +23.1 53 +44 +55 опасность
перегрева
1006.1 1005.3
09 18.09 ЮЗ 3 10 км ясно +35.8 +26.2 58 +52 +66 опасность
перегрева
1005.1 1004.3
12 18.09 ЮЗ 4 10 км ясно +35.6 +26.6 60 +53 +57 опасность
перегрева
1003.4 1002.6
15 18.09 штиль 0 7000 м мгла 4/0
[Ci sp]
+33.2 +26.0 66 +49 +49 опасность
перегрева
1004.5 1003.7 +36.4
18 18.09 штиль 0 5000 м мгла ясно +31.0 +26.9 79 +48 +48 опасность
перегрева
1005.8 1005.0
21 18.09 штиль 0 6000 м мгла ясно +30.2 +24.6 72 +43 +43 опасность
перегрева
1005.1 1004.3
00 19.09 штиль 0 5000 м мгла ясно +29.4 +24.7 76 +42 +42 опасность
перегрева
1005.2 1004.4
03 19.09 штиль 0 3000 м мгла 4/0
[Ci sp]
+29.4 +23.6 71 +40 +40 очень
душно
1006.2 1005.4 +25.4
06 19.09 штиль 0 10 км ясно +35.8 +26.0 57 +51 +65 опасность
перегрева
1007.3 1006.5
09 19.09 ЮЗ 5 10 км ясно +35.4 +26.8 61 +53 +62 опасность
перегрева
1006.4 1005.6
12 19.09 ЮЗ 4 7000 м мгла ясно +35.6 +27.5 63 +55 +59 опасность
перегрева
1005.1 1004.3
15 19.09 штиль 0 10 км ясно +32.6 +27.1 73 +51 +51 опасность
перегрева
1005.8 1005.0 +37.0
18 19.09 Ю 3 7000 м мгла ясно +30.3 +25.7 76 +45 +45 опасность
перегрева
1006.7 1005.9
21 19.09 штиль 0 4000 м дымка ясно +29.8 +27.2 86 +47 +47 опасность
перегрева
1006.0 1005.2
00 20.09 штиль 0 1500 м дымка ясно +29.4 +28.6 95 +50 +50 опасность
перегрева
1005.5 1004.7
03 20.09 штиль 0 2500 м дымка ясно +28.2 +27.4 95 +45 +45 опасность
перегрева
1005.8 1005.0 +28.0
06 20.09 ЮЗ 2 4000 м мгла ясно +33.5 +25.3 62 +48 +58 опасность
перегрева
1006.8 1006.0
09 20.09 ЮЗ 5 5000 м мгла ясно +35.6 +22.9 48 +45 +54 опасность
перегрева
1005.7 1004.9
12 20.09 ЮЗ 4 10 км ясно +35.8 +21.6 44 +44 +48 опасность
перегрева
1004.4 1003.6
15 20.09 штиль 0 7000 м мгла ясно +32.4 +21.6 53 +41 +41 опасность
перегрева
1004.3 1003.5 +36.4
18 20.09 штиль 0 10 км ясно +28.0 +19.5 60 +34 +34 очень
душно
1004.6 1003.8
21 20.09 штиль 0 10 км ясно +26.6 +20.2 68 +33 +33 очень
душно
1003.9 1003.1
00 21.09 штиль 0 6000 м мгла ясно +25.6 +20.4 73 +32 +32 очень
душно
1003.4 1002.6
03 21.09 штиль 0 7000 м мгла ясно +27.8 +20.6 65 +35 +35 очень
душно
1004.3 1003.5 +25.0
06 21.09 ЮВ 1 7000 м мгла ясно +34.3 +22.0 49 +43 +55 опасность
перегрева
1005.2 1004.4
09 21.09 З 3 7000 м мгла ясно +36.2 +19.2 37 +41 +55 опасность
перегрева
1003.5 1002.7
12 21.09 ЮЗ 4 6000 м мгла ясно +35.8 +22.4 46 +45 +49 опасность
перегрева
997.2 996.5
15 21.09 З 3 8000 м мгла ясно +32.2 +24.3 63 +44 +44 опасность
перегрева
1002.4 1001.6 +37.4 666
18 21.09 штиль 0 8000 м мгла ясно +29.3 +23.7 72 +40 +40 очень
душно
1003.7 1002.9
21 21.09 штиль 0 6000 м мгла ясно +29.5 +23.9 72 +41 +41 опасность
перегрева
1003.4 1002.6
00 22.09 штиль 0 6000 м мгла ясно +27.3 +22.0 73 +35 +35 очень
душно
1002.9 1002.1
03 22.09 штиль 0 4000 м мгла ясно +26.2 +19.3 66 +32 +32 очень
душно
1004.8 1004.0 +24.8

 

Местоположение метеостанции Бушир аэропорт (Иран): широта 28.98 долгота 50.83 высота над уровнем моря 19 м.

В архиве по умолчанию представлена погода в Бушир аэропорту за последнюю неделю. Архивные данные за месяц целиком и за предыдущие месяцы, начиная с января 2011 года, Вы можете получить, выбрав интересующий диапазон дат из раскрывающегося списка и нажав кнопку "Ввод!".


*Определитесь, кто Вы:
робот инопланетянин человек

Внимание! Время в таблицах - всемирное. Для получения местного времени необходимо прибавить поправку, которая равна 3.5 ч.

Смотрите также архив погоды в соседних городах и на ближайших метеорологических станциях:

Погода в Бушире (Иран) (4 км)
Погода на Харке (Иран) (59 км)
Погода в Гечсаране (Иран) (161 км)
Погода в Бендер-Дейере (Иран) (167 км)
Погода в Ширазе (Иран) (176 км)
Погода в Ясудже (Иран) (201 км)
Погода в Нувасибе (Кувейт) (210 км)
Погода в Умм-Аль-Марадим (Кувейт) (215 км)
Погода в Омидийе (Иран) (228 км)
Погода в Порту Juluiah (Кувейт) (249 км)

Пояснения к столбцам:

Ветер - указаны скорость ветра в м/с - средняя за 10 мин, порывы в срок и между сроками (в фигурных скобках) и направление, откуда дует ветер: С - северный, СВ - северо-восточный, В - восточный, ЮВ - юго-восточный, Ю - южный, ЮЗ - юго-западный, З - западный, СЗ - северо-западный.
Видимость - горизонтальная дальность видимости в метрах или километрах. При видимости от 1 до 10 км при отсутствии осадков обычно наблюдается дымка, при ухудшении видимости до 1 км и менее - туман. В сухую погоду видимость может ухудшаться дымом, пылью или мглою.
Явления - указаны атмосферные явления, наблюдавшиеся в срок или в последний час перед сроком; фигурными скобками обозначены явления, наблюдавшиеся между сроками (за 1-3 часа до срока); квадратными скобками обозначены град или гололедные отложения с указанием их диаметра в мм.
Облачность - указаны через наклонную черту общая и нижняя облачность в баллах и высота нижней границы облаков в метрах; квадратными скобками обозначены формы облаков: Ci - перистые, Cs - перисто-слоистые, Cc - перисто-кучевые, Ac - высококучевые, As - высокослоистые, Sc - слоисто-кучевые, Ns - слоисто-дождевые, Cu - кучевые, Cb - кучево-дождевые. Подробнее классификацию облаков см. в Атласе облаков (PDF).
T - Температура воздуха - температура, измеренная на высоте 2 м над землей.
Td - Температура точки росы - температура, при понижении до которой содержащийся в воздухе водяной пар достигнет насыщения.
f - Относительная влажность воздуха - влажноcть воздуха, измеренная на высоте 2 м над землей.
Te - Эффективная температура - температура, которую ощущает одетый по сезону человек в тени. Характеристика душности погоды. При расчете учитывается влияние влажности воздуха и скорости ветра на теплоощущения человека.
Tes - Эффективная температура на солнце - температура, которую ощущает человек, с поправкой на солнечный нагрев. Характеристика знойности погоды. Зависит от высоты солнца над горизонтом, облачности и скорости ветра. Ночью, в пасмурную погоду, а также при ветре 12 м/с и более поправка равна нулю.
P - Атмосферное давление - приведенное к уровню моря атмосферное давление.
Po - Атмосферное давление - измеренное на уровне метеостанции атмосферное давление.
Tmin - Минимальная температура - минимум температуры воздуха на высоте 2 м над землей.
Tmax - Максимальная температура - максимум температуры воздуха на высоте 2 м над землей.
R - Количество осадков - Количество выпавших осадков за период времени, мм. При наведении курсора мыши на число - период времени, за который выпало указанное количество осадков.
R24 - Количество осадков - Количество выпавших осадков за 24 часа, мм.
S - Снежный покров - Высота снежного покрова, см. При наведении курсора мыши на число - состояние снежного покрова и степень покрытия местности в баллах.